Jackson, WY

3:03 AM MDT on April 25, 2018 (GMT -0600)
Jackson Hole

Weather History for KJAC - September, 2013

Change the Weather History Date:

Thursday, September 26, 2013

  Actual Average Record
Temperature  
Mean Temperature 36 °F -  
Max Temperature 42 °F 65 °F 81 °F (1987)
Min Temperature 30 °F 28 °F 19 °F (1970)
Degree Days  
Heating Degree Days 29    
Moisture  
Dew Point 34 °F    
Average Humidity 94    
Maximum Humidity 100    
Minimum Humidity 66    
Precipitation  
Precipitation 0.00 in - - ()
Sea Level Pressure  
Sea Level Pressure 29.82 in    
Wind  
Wind Speed 3 mph (NNW)    
Max Wind Speed 15 mph    
Max Gust Speed -    
Visibility 8 miles    
Events Snow    
Averages and records for this station are not official NWS values.
T = Trace of Precipitation, MM = Missing Value Source: NWS Daily Summary

Daily Weather History Graph

Daily Weather History Graph

Search for Another Location

Airport or City:

Astronomy

Sep. 26, 2013 Rise Set
Actual Time 7:15 AM MDT 7:12 PM MDT
Civil Twilight 6:46 AM MDT 7:40 PM MDT
Nautical Twilight 6:13 AM MDT 8:14 PM MDT
Astronomical Twilight 5:39 AM MDT 8:48 PM MDT
Moon No Moon Rise 2:19 PM MDT (9/26)
Length of Visible Light 12h 54m
Length of Day
11h 57m
Waning Gibbous, 54% of the Moon is Illuminated
Sep 26
Waning Gibbous
Sep 26
Last Quarter
Oct 4
New
Oct 11
First Quarter
Oct 18
Full

Hourly Weather History & Observations

Time (MDT) Temp. Windchill Dew Point Humidity Pressure Visibility Wind Dir Wind Speed Gust Speed Precip Events Conditions
12:15 AM 30.2 °F - 30.2 °F 100% 29.79 in 10.0 mi Calm Calm - N/A   Overcast
12:35 AM 33.8 °F 30.8 °F 32.0 °F 93% 29.79 in 10.0 mi East 3.5 mph - N/A   Overcast
12:55 AM 33.8 °F - 33.8 °F 100% 29.79 in 10.0 mi Calm Calm - N/A   Overcast
1:15 AM 33.8 °F - 33.8 °F 100% 29.78 in 10.0 mi Calm Calm - N/A   Overcast
1:35 AM 33.8 °F - 32.0 °F 93% 29.79 in 10.0 mi Calm Calm - N/A   Mostly Cloudy
1:55 AM 32.0 °F 28.7 °F 32.0 °F 100% 29.80 in 10.0 mi SSW 3.5 mph - N/A   Mostly Cloudy
2:15 AM 33.8 °F - 33.8 °F 100% 29.80 in 10.0 mi Calm Calm - N/A   Overcast
2:35 AM 33.8 °F - 33.8 °F 100% 29.80 in 10.0 mi Calm Calm - N/A   Overcast
2:55 AM 33.8 °F - 33.8 °F 100% 29.80 in 10.0 mi Calm Calm - N/A   Overcast
3:15 AM 33.8 °F - 33.8 °F 100% 29.80 in 10.0 mi Calm Calm - N/A   Overcast
3:35 AM 33.8 °F 30.8 °F 33.8 °F 100% 29.81 in - WSW 3.5 mph - N/A   Unknown
3:55 AM 33.8 °F - 33.8 °F 100% 29.81 in 10.0 mi Calm Calm - N/A   Overcast
4:15 AM 33.8 °F - 32.0 °F 93% 29.81 in - Calm Calm - N/A   Overcast
4:35 AM 33.8 °F - 32.0 °F 93% 29.81 in 10.0 mi Calm Calm - N/A   Mostly Cloudy
4:55 AM 33.8 °F - 33.8 °F 100% 29.81 in 10.0 mi Calm Calm - N/A   Mostly Cloudy
5:55 AM 33.8 °F 30.8 °F 32.0 °F 93% 29.81 in 10.0 mi North 3.5 mph - N/A   Overcast
6:35 AM 33.8 °F 29.6 °F 33.8 °F 100% 29.80 in 10.0 mi North 4.6 mph - N/A   Overcast
6:55 AM 33.8 °F - 33.8 °F 100% 29.81 in 10.0 mi Calm Calm - N/A   Overcast
7:40 AM 33.8 °F - 33.8 °F 100% 29.82 in 2.0 mi Calm Calm - N/A Snow Light Snow
7:55 AM 33.8 °F 29.6 °F 33.8 °F 100% 29.83 in 1.0 mi North 4.6 mph - N/A Snow Light Snow
8:18 AM 33.8 °F 29.6 °F 33.8 °F 100% 29.83 in 0.8 mi North 4.6 mph - N/A Snow Light Snow
8:54 AM 33.8 °F 28.6 °F 33.8 °F 100% 29.84 in 1.0 mi North 5.8 mph - N/A Snow Light Snow
9:52 AM 33.8 °F 25.8 °F 32.0 °F 93% 29.85 in 2.0 mi NNW 10.4 mph - N/A Snow Light Snow
10:16 AM 33.8 °F 26.4 °F 32.0 °F 93% 29.85 in 5.0 mi North 9.2 mph - N/A   Overcast
10:56 AM 35.6 °F 28.6 °F 33.8 °F 93% 29.84 in 5.0 mi North 9.2 mph - N/A   Overcast
11:51 AM 37.4 °F 29.8 °F 33.8 °F 87% 29.84 in 7.0 mi North 11.5 mph - N/A   Overcast
12:53 PM 41.0 °F 33.1 °F 35.6 °F 81% 29.82 in 10.0 mi NNW 15.0 mph - N/A   Scattered Clouds
1:51 PM 42.8 °F 36.6 °F 33.8 °F 70% 29.82 in 10.0 mi North 11.5 mph - N/A   Overcast
2:53 PM 42.8 °F 36.6 °F 33.8 °F 70% 29.81 in 10.0 mi NNW 11.5 mph - N/A   Overcast
3:57 PM 42.8 °F 38.0 °F 32.0 °F 66% 29.82 in 10.0 mi NNE 8.1 mph - N/A   Overcast
4:51 PM 42.8 °F 37.0 °F 33.8 °F 70% 29.81 in 10.0 mi North 10.4 mph - N/A   Overcast
5:51 PM 42.8 °F 37.0 °F 35.6 °F 76% 29.81 in 10.0 mi NNE 10.4 mph - N/A   Mostly Cloudy
6:51 PM 41.0 °F 36.4 °F 35.6 °F 81% 29.84 in 10.0 mi NNE 6.9 mph - N/A   Mostly Cloudy
7:51 PM 39.2 °F 35.9 °F 37.4 °F 93% 29.83 in 10.0 mi NNW 4.6 mph - N/A   Overcast
8:55 PM 37.4 °F - 37.4 °F 100% 29.83 in 10.0 mi Calm Calm - N/A   Mostly Cloudy
9:15 PM 37.4 °F - 35.6 °F 93% 29.82 in 10.0 mi Calm Calm - N/A   Overcast
9:35 PM 39.2 °F 35.0 °F 37.4 °F 93% 29.84 in 10.0 mi SW 5.8 mph - N/A   Overcast
10:15 PM 37.4 °F 33.8 °F 37.4 °F 100% 29.85 in 10.0 mi SSW 4.6 mph - N/A   Overcast
10:35 PM 37.4 °F 32.8 °F 37.4 °F 100% 29.87 in 5.0 mi SSW 5.8 mph - N/A   Overcast
10:55 PM 37.4 °F 32.1 °F 37.4 °F 100% 29.85 in 10.0 mi West 6.9 mph - N/A   Overcast
11:15 PM 35.6 °F 31.7 °F 35.6 °F 100% 29.85 in 10.0 mi West 4.6 mph - N/A   Mostly Cloudy
11:35 PM 35.6 °F 29.9 °F 35.6 °F 100% 29.85 in 10.0 mi SE 6.9 mph - N/A   Scattered Clouds
11:55 PM 35.6 °F - 35.6 °F 100% 29.85 in 10.0 mi Calm Calm - N/A   Mostly Cloudy